User: anonymous   Login
Location: Caltech
(34.1382°N, 118.1253°W)
Time: 07:34:10
(UTC-08:00)
Language:

Iridium 95 - Orbit

View from above orbital plane
View from above orbital plane
View from above satellite
View from above satellite

Ground track
Ground track

The orbit data is extracted from the following two-line orbital elements,

1 27375U 02005D   18015.91927588 -.00000053 +00000-0 -26032-4 0  9992
2 27375 086.3967 198.2698 0002675 098.2842 261.8657 14.34213618841372
Epoch (UTC): 15 January 2018 22:03:45
Eccentricity: 0.0002675
inclination: 86.3967°
perigee height: 776 km
apogee height: 779 km
right ascension of ascending node: 198.2698°
argument of perigee: 98.2842°
revolutions per day: 14.34213618
mean anomaly at epoch: 261.8657°
orbit number at epoch: 84137

The dashed part of the orbit path shows where the satellite is in the earth's shadow,  

DLR